STARLINK-1617 (46350 NORAD) Tracking and Keplerian Element Data

This shows tracking and keplerian element data for the satellite.

Feedback or suggestion? Click here.




ElementValue
Catalog46350
NameSTARLINK-1617
Epoch Orbit179
Epoch Day335.91670139
Epoch Year2020
RAAN17.1791
Inclination53.0133
Eccentricity0.0001141
Argument of Perigee81.8206
Mean Anonmoly91.5261
Mean Motion15.05557749
Decay Rate0.00018474
L11 46350U 20062AB 20335.91670139 .00018474 00000-0 12845-2 0 9993
L22 46350 53.0133 17.1791 0001141 81.8206 91.5261 15.05557749 1792

Live tracking and technical data element details for STARLINK-1617 (NORAD 46350). STARLINK-1617 can be tracked NOW for your location showing map with azimuth and elevation plus other details from your city location.

Track the satellite on the map from your city or location and see movement details for azimuth, elevation, latitude, longitude, range, height, and movement on the map or in text.







IsCatalogInMostPopularTable: catalog: 46350, numindb: 19
Update: records affected: 1



GetName: 46350 STARLINK-1617

Hit Count: updated at: Wed, 02 Dec 2020 06:56:15 GMT